Satellite: NOAA-12
Catalog number: 21263
Epoch time:      09070.96889374
Element set:    0060
Inclination:      098.7736 deg
RA of node:       078.9789 deg
Eccentricity:    0.0013382
Arg of perigee:   069.1637 deg
Mean anomaly:     291.0975 deg
Mean motion:   14.25569561 rev/day
Decay rate:        2.6e-07 rev/day^2
Epoch rev:           92654
Checksum:              352

Satellite: MET-3/5
Catalog number: 21655
Epoch time:      09070.90879546
Element set:    0613
Inclination:      082.5510 deg
RA of node:       275.2289 deg
Eccentricity:    0.0014655
Arg of perigee:   064.7014 deg
Mean anomaly:     295.5625 deg
Mean motion:   13.17018723 rev/day
Decay rate:        5.1e-07 rev/day^2
Epoch rev:           84482
Checksum:              310

Satellite: MET-2/21
Catalog number: 22782
Epoch time:      09070.91670523
Element set:    0403
Inclination:      082.5428 deg
RA of node:       259.1682 deg
Eccentricity:    0.0020981
Arg of perigee:   259.3376 deg
Mean anomaly:     100.5411 deg
Mean motion:   13.83634264 rev/day
Decay rate:        7.4e-07 rev/day^2
Epoch rev:           78415
Checksum:              298

Satellite: OKEAN-4
Catalog number: 23317
Epoch time:      09071.45889125
Element set:     851
Inclination:      082.5353 deg
RA of node:       064.7497 deg
Eccentricity:    0.0021393
Arg of perigee:   327.5856 deg
Mean anomaly:     032.4052 deg
Mean motion:   14.82679197 rev/day
Decay rate:        9.0e-08 rev/day^2
Epoch rev:           77803
Checksum:              326

Satellite: NOAA-14
Catalog number: 23455
Epoch time:      09070.92904167
Element set:    0544
Inclination:      098.9155 deg
RA of node:       148.9284 deg
Eccentricity:    0.0010338
Arg of perigee:   105.9211 deg
Mean anomaly:     254.3087 deg
Mean motion:   14.13757378 rev/day
Decay rate:      -2.08e-06 rev/day^2
Epoch rev:           73218
Checksum:              315

Satellite: NOAA-15
Catalog number: 25338
Epoch time:      09069.38356814
Element set:     849
Inclination:      098.5794 deg
RA of node:       060.7867 deg
Eccentricity:    0.0010399
Arg of perigee:   351.7447 deg
Mean anomaly:     008.3581 deg
Mean motion:   14.24748531 rev/day
Decay rate:       -3.8e-07 rev/day^2
Epoch rev:           56270
Checksum:              346

Satellite: RESURS
Catalog number: 25394
Epoch time:      09070.71523616
Element set:    0171
Inclination:      098.3527 deg
RA of node:       107.9728 deg
Eccentricity:    0.0001949
Arg of perigee:   110.1492 deg
Mean anomaly:     249.9897 deg
Mean motion:   14.24180445 rev/day
Decay rate:       -3.0e-07 rev/day^2
Epoch rev:           55452
Checksum:              304

Satellite: FENGYUN1
Catalog number: 25730
Epoch time:      09070.92361762
Element set:    0726
Inclination:      098.7482 deg
RA of node:       044.0235 deg
Eccentricity:    0.0022695
Arg of perigee:   131.3882 deg
Mean anomaly:     228.9243 deg
Mean motion:   14.07936289 rev/day
Decay rate:       1.75e-06 rev/day^2
Epoch rev:           50663
Checksum:              312

Satellite: OKEAN-0
Catalog number: 25860
Epoch time:      09070.93350001
Element set:    0622
Inclination:      097.7773 deg
RA of node:       056.0236 deg
Eccentricity:    0.0001628
Arg of perigee:   092.8457 deg
Mean anomaly:     267.2946 deg
Mean motion:   14.73561856 rev/day
Decay rate:        2.4e-07 rev/day^2
Epoch rev:           51882
Checksum:              305

Satellite: NOAA-16
Catalog number: 26536
Epoch time:      09070.75298363
Element set:    0323
Inclination:      099.1761 deg
RA of node:       072.0654 deg
Eccentricity:    0.0010375
Arg of perigee:   190.6312 deg
Mean anomaly:     169.4624 deg
Mean motion:   14.12513601 rev/day
Decay rate:       1.77e-06 rev/day^2
Epoch rev:           43654
Checksum:              294

Satellite: NOAA-17
Catalog number: 27453
Epoch time:      09070.89875405
Element set:    0333
Inclination:      098.4969 deg
RA of node:       133.2722 deg
Eccentricity:    0.0012446
Arg of perigee:   051.4993 deg
Mean anomaly:     308.7272 deg
Mean motion:   14.24047183 rev/day
Decay rate:       1.30e-06 rev/day^2
Epoch rev:           34890
Checksum:              314

Satellite: NOAA-18
Catalog number: 28654
Epoch time:      09070.91623785
Element set:    0820
Inclination:      098.8990 deg
RA of node:       014.9515 deg
Eccentricity:    0.0013487
Arg of perigee:   278.6005 deg
Mean anomaly:     081.3661 deg
Mean motion:   14.11238600 rev/day
Decay rate:       -8.6e-07 rev/day^2
Epoch rev:           19623
Checksum:              318

Satellite: NOAA-19
Catalog number: 33591
Epoch time:      09071.30088403
Element set:      31
Inclination:      098.7373 deg
RA of node:       019.6287 deg
Eccentricity:    0.0014283
Arg of perigee:   154.4877 deg
Mean anomaly:     205.7013 deg
Mean motion:   14.10939685 rev/day
Decay rate:      -2.07e-06 rev/day^2
Epoch rev:             477
Checksum:              304

/EX
SB KEPS @ AMSAT  $ORB09071.M
Orbital Elements  09071.MISC

HR AMSAT ORBITAL ELEMENTS FOR MANNED AND MISCELLANEOUS SATELLITES
FROM WA5QGD FORT WORTH,TX March 12, 2009
Send Subscribe/unsubscribe to KEPS at 
http://www.amsat.org/mailman/listinfo/keps
BID: ORB09071.M
TO ALL RADIO AMATEURS BT

